Easton, WA

3:30 PM PDT on September 30, 2016 (GMT -0700)
Stampede Pass

Weather History for KSMP - February, 2012

Change the Weather History Date:

Monday, February 13, 2012

  Actual Average Record
Temperature  
Mean Temperature 32 °F -  
Max Temperature 33 °F 30 °F 39 °F (2003)
Min Temperature 30 °F 23 °F 19 °F (2002)
Degree Days  
Heating Degree Days 34    
Moisture  
Dew Point 29 °F    
Average Humidity 88    
Maximum Humidity 96    
Minimum Humidity 82    
Precipitation  
Precipitation 0.08 in - - ()
Sea Level Pressure  
Sea Level Pressure 29.92 in    
Wind  
Wind Speed 5 mph (SW)    
Max Wind Speed 7 mph    
Max Gust Speed -    
Visibility 1 miles    
Events Fog , Snow    
Averages and records for this station are not official NWS values.
T = Trace of Precipitation, MM = Missing Value Source: NWS Daily Summary

Daily Weather History Graph

Daily Weather History Graph

Search for Another Location

Airport or City:

Trip Planner

Search our weather history database for the weather conditions in past years. The results will help you decide how hot, cold, wet, or windy it might be!

Date:

Astronomy

Feb. 13, 2012 Rise Set
Actual Time 7:14 AM PST 5:25 PM PST
Civil Twilight 6:42 AM PST 5:57 PM PST
Nautical Twilight 6:06 AM PST 6:33 PM PST
Astronomical Twilight 5:31 AM PST 7:08 PM PST
Moon No Moon Rise 9:44 AM PST (2/13)
Length of Visible Light 11h 14m
Length of Day
10h 11m
Waning Gibbous, 60% of the Moon is Illuminated
Feb 13
Waning Gibbous
Feb 14
Last Quarter
Feb 21
New
Feb 29
First Quarter
Mar 8
Full

Hourly Weather History & Observations

Time (PST) Temp. Windchill Dew Point Humidity Pressure Visibility Wind Dir Wind Speed Gust Speed Precip Events Conditions
12:17 AM 30.2 °F 23.4 °F 28.4 °F 93% 29.81 in 0.2 mi WSW 6.9 mph - N/A Fog Light Freezing Fog
12:56 AM 32.0 °F 26.4 °F 28.9 °F 88% 29.87 in 0.2 mi Variable 5.8 mph - N/A Fog Fog
1:56 AM 32.0 °F 26.4 °F 28.9 °F 88% 29.88 in 0.2 mi Variable 5.8 mph - N/A Fog Fog
2:06 AM 32.0 °F 26.4 °F 28.4 °F 87% 29.81 in 0.2 mi WSW 5.8 mph - N/A Fog Fog
2:56 AM 32.0 °F 27.5 °F 28.0 °F 85% 29.88 in 0.2 mi Variable 4.6 mph - 0.01 in Fog , Snow Light Snow
3:56 AM 32.0 °F 27.5 °F 28.0 °F 85% 29.89 in 0.2 mi Variable 4.6 mph - 0.01 in Fog Fog
6:48 AM 30.2 °F 25.4 °F 26.6 °F 86% 29.85 in 0.2 mi WSW 4.6 mph - 0.01 in Fog Light Freezing Fog
6:56 AM 30.9 °F 26.2 °F 27.0 °F 85% 29.92 in 0.2 mi Variable 4.6 mph - 0.01 in Fog , Snow Light Snow
7:56 AM 30.9 °F 26.2 °F 28.0 °F 89% 29.94 in 0.2 mi WSW 4.6 mph - 0.01 in Fog , Snow Light Snow
9:56 AM 32.0 °F 27.5 °F 28.9 °F 88% 29.97 in 0.2 mi Variable 4.6 mph - N/A Fog Fog
10:37 AM 32.0 °F 28.7 °F 30.2 °F 93% 29.91 in 0.5 mi Variable 3.5 mph - N/A Fog Fog
10:52 AM 32.0 °F 27.5 °F 28.4 °F 87% 29.91 in 0.2 mi Variable 4.6 mph - N/A Fog Fog
10:56 AM 32.0 °F 26.4 °F 28.9 °F 88% 29.98 in 0.2 mi Variable 5.8 mph - N/A Fog Fog
11:02 AM 32.0 °F 27.5 °F 28.4 °F 87% 29.91 in 1.0 mi SW 4.6 mph - N/A   Mist
11:13 AM 32.0 °F 28.7 °F 28.4 °F 87% 29.91 in 0.8 mi Variable 3.5 mph - N/A   Overcast
11:22 AM 32.0 °F 26.4 °F 30.2 °F 93% 29.91 in 1.2 mi SW 5.8 mph - N/A   Overcast
11:26 AM 33.8 °F 29.6 °F 30.2 °F 87% 29.91 in 2.0 mi SW 4.6 mph - N/A   Overcast
11:45 AM 33.8 °F 29.6 °F 30.2 °F 87% 29.90 in 3.0 mi Variable 4.6 mph - N/A   Mostly Cloudy
11:47 AM 33.8 °F 28.6 °F 30.2 °F 87% 29.90 in 1.8 mi WSW 5.8 mph - N/A   Mostly Cloudy
11:51 AM 33.8 °F 29.6 °F 30.2 °F 87% 29.90 in 0.8 mi Variable 4.6 mph - N/A   Mostly Cloudy
11:56 AM 33.1 °F 27.7 °F 30.0 °F 89% 29.97 in 0.2 mi WSW 5.8 mph - N/A Fog Fog
12:08 PM 33.8 °F 30.8 °F 30.2 °F 87% 29.90 in 0.5 mi Variable 3.5 mph - N/A Fog Fog
12:17 PM 33.8 °F 28.6 °F 30.2 °F 87% 29.90 in 0.2 mi Variable 5.8 mph - N/A Fog Fog
12:24 PM 33.8 °F 28.6 °F 30.2 °F 87% 29.90 in 0.8 mi WSW 5.8 mph - N/A   Mist
12:32 PM 33.8 °F 28.6 °F 30.2 °F 87% 29.90 in 1.5 mi Variable 5.8 mph - N/A   Overcast
12:35 PM 33.8 °F 30.8 °F 30.2 °F 87% 29.90 in 4.0 mi Variable 3.5 mph - N/A   Overcast
12:56 PM 33.1 °F 30.0 °F 30.0 °F 89% 29.96 in 10.0 mi Variable 3.5 mph - N/A   Overcast
1:17 PM 33.8 °F 28.6 °F 30.2 °F 87% 29.90 in 10.0 mi SW 5.8 mph - N/A   Overcast
1:33 PM 33.8 °F 30.8 °F 30.2 °F 87% 29.90 in 1.5 mi Variable 3.5 mph - N/A   Overcast
1:40 PM 33.8 °F 29.6 °F 30.2 °F 87% 29.90 in 1.0 mi Variable 4.6 mph - N/A   Overcast
1:43 PM 32.0 °F 28.7 °F 30.2 °F 93% 29.90 in 2.5 mi Variable 3.5 mph - N/A   Overcast
1:49 PM 32.0 °F 27.5 °F 30.2 °F 93% 29.90 in 1.2 mi Variable 4.6 mph - N/A   Overcast
1:56 PM 32.0 °F 28.7 °F 30.9 °F 96% 29.97 in 0.5 mi Variable 3.5 mph - N/A Fog Fog
2:05 PM 32.0 °F 27.5 °F 30.2 °F 93% 29.90 in 1.0 mi Variable 4.6 mph - 0.00 in Snow Light Snow
2:12 PM 33.8 °F 29.6 °F 30.2 °F 87% 29.90 in 0.8 mi SW 4.6 mph - 0.00 in Snow Light Snow
2:30 PM 32.0 °F 28.7 °F 30.2 °F 93% 29.91 in 0.2 mi Variable 3.5 mph - 0.00 in Fog , Snow Light Snow
2:56 PM 32.0 °F 28.7 °F 30.0 °F 92% 29.99 in 0.2 mi Variable 3.5 mph - 0.00 in Fog , Snow Light Snow
3:26 PM 32.0 °F 27.5 °F 30.2 °F 93% 29.92 in 0.5 mi Variable 4.6 mph - 0.00 in Fog Fog
3:33 PM 32.0 °F 27.5 °F 30.2 °F 93% 29.92 in 0.2 mi Variable 4.6 mph - 0.00 in Fog Fog
3:56 PM 32.0 °F 25.6 °F 30.9 °F 96% 29.99 in 0.2 mi Variable 6.9 mph - 0.00 in Fog Fog
4:56 PM 32.0 °F 26.4 °F 30.0 °F 92% 29.99 in 0.2 mi Variable 5.8 mph - 0.00 in Fog , Snow Light Snow
5:56 PM 32.0 °F 27.5 °F 28.9 °F 88% 30.00 in 0.2 mi Variable 4.6 mph - 0.02 in Fog , Snow Light Snow
6:56 PM 33.1 °F 27.7 °F 28.9 °F 85% 30.01 in 0.2 mi Variable 5.8 mph - 0.01 in Fog , Snow Light Snow
7:56 PM 32.0 °F 26.4 °F 28.0 °F 85% 30.00 in 0.2 mi Variable 5.8 mph - 0.00 in Fog Fog
8:56 PM 33.1 °F 27.7 °F 28.0 °F 82% 30.01 in 0.2 mi Variable 5.8 mph - 0.00 in Snow Heavy Snow
9:56 PM 32.0 °F 28.7 °F 28.0 °F 85% 30.01 in 0.2 mi Variable 3.5 mph - 0.01 in Fog Fog
10:09 PM 32.0 °F - 28.4 °F 87% 29.93 in 0.5 mi Calm Calm - 0.00 in Fog , Snow Light Snow
10:25 PM 32.0 °F 28.7 °F 28.4 °F 87% 29.93 in 1.5 mi SW 3.5 mph - 0.00 in   Overcast
10:40 PM 32.0 °F 27.5 °F 28.4 °F 87% 29.92 in 2.0 mi WSW 4.6 mph - 0.00 in   Overcast
10:46 PM 32.0 °F 28.7 °F 28.4 °F 87% 29.92 in 1.2 mi WSW 3.5 mph - 0.00 in   Overcast
10:56 PM 32.0 °F 27.5 °F 28.0 °F 85% 29.98 in 0.8 mi WSW 4.6 mph - 0.00 in   Overcast
11:13 PM 30.2 °F 26.7 °F 26.6 °F 86% 29.89 in 0.5 mi SW 3.5 mph - N/A Fog Light Freezing Fog
11:31 PM 30.2 °F 26.7 °F 26.6 °F 86% 29.88 in 3.0 mi SW 3.5 mph - N/A   Haze
11:41 PM 30.2 °F - 26.6 °F 86% 29.88 in 10.0 mi Calm Calm - N/A   Scattered Clouds
11:56 PM 30.0 °F - 26.1 °F 85% 29.95 in 6.0 mi Calm Calm - N/A   Scattered Clouds